DW1736 Weather Reports


time (UTC)temp
C
wind
direction
speed
KPH
gust
KPH
rain 1hr
cm
rain 24hr
cm
rain mn
cm
humidity
%
barometer
mb
20260507130525 13 68 3.2 11.3 0.00 0.18 0.08 83 1011.1
20260507125525 13 0.0 0.0 0.03 0.18 0.08 88 1010.8
20260507124525 13 0.0 3.2 0.03 0.18 0.08 88 1010.6
20260507123538 13 0.0 0.0 0.03 0.18 0.08 90 1010.6
20260507122538 14 0.0 0.0 0.05 0.18 0.08 92 1010.7
20260507121538 14 0.0 0.0 0.05 0.18 0.08 93 1010.7
20260507120558 14 0.0 0.0 0.05 0.18 0.08 93 1010.6
20260507115545 14 0.0 0.0 0.03 0.15 0.05 93 1010.5
20260507114558 14 0.0 0.0 0.03 0.15 0.05 92 1010.4
20260507113545 14 0.0 6.4 0.03 0.15 0.05 91 1010.7
20260507112538 14 0.0 0.0 0.00 0.13 0.03 89 1010.5
20260507111538 14 0.0 3.2 0.00 0.13 0.03 89 1010.6
20260507110558 15 0.0 3.2 0.00 0.13 0.03 90 1010.4
20260507105538 15 0.0 0.0 0.00 0.13 0.03 91 1009.9
20260507104525 15 0.0 0.0 0.03 0.13 0.03 92 1009.8
20260507103538 15 0.0 0.0 0.03 0.13 0.03 92 1009.6
20260507102538 15 0.0 0.0 0.03 0.13 0.03 93 1009.9
20260507101538 15 0.0 0.0 0.03 0.13 0.03 93 1009.7
20260507100538 15 0.0 0.0 0.03 0.13 0.03 93 1009.7
20260507095538 15 0.0 0.0 0.03 0.13 0.03 92 1009.8
20260507094525 16 0.0 0.0 0.00 0.10 0.00 91 1009.7
20260507093525 16 0.0 0.0 0.00 0.10 0.00 91 1009.6
20260507092537 16 0.0 0.0 0.00 0.10 0.00 91 1009.4
20260507091538 16 0.0 0.0 0.00 0.10 0.00 90 1009.2
20260507090538 16 0.0 0.0 0.00 0.10 0.00 90 1008.9
20260507085538 16 0.0 0.0 0.00 0.10 0.00 91 1008.8
20260507084538 17 0.0 0.0 0.00 0.10 0.00 92 1009.0
20260507083538 17 0.0 8.0 0.00 0.10 0.00 91 1008.8
20260507082525 17 0.0 0.0 0.00 0.10 0.00 91 1008.6
20260507081538 18 0.0 0.0 0.00 0.10 0.00 90 1008.5
20260507080538 20 0.0 1.6 0.00 0.10 0.00 89 1008.4
20260507075538 20 0.0 0.0 0.00 0.10 0.00 90 1008.4
20260507074537 20 0.0 0.0 0.00 0.10 0.00 89 1008.5
20260507073545 20 0.0 0.0 0.00 0.10 0.00 89 1008.4
20260507072538 21 0.0 0.0 0.00 0.10 0.00 88 1008.2
20260507071538 21 0.0 0.0 0.00 0.10 0.00 87 1008.0
20260507070537 21 0.0 0.0 0.00 0.10 0.00 86 1007.6
20260507065537 21 225 1.6 6.4 0.00 0.10 0.00 86 1007.2
20260507064537 21 0.0 6.4 0.00 0.10 0.00 85 1007.0
20260507063525 21 0.0 4.8 0.00 0.10 0.00 84 1006.8
20260507062559 21 225 1.6 6.4 0.00 0.10 0.00 84 1007.0
20260507061537 21 0.0 6.4 0.00 0.10 0.00 84 1007.2
20260507060537 21 0.0 6.4 0.00 0.10 0.00 83 1007.4
20260507055537 21 0.0 0.0 0.00 0.10 0.00 83 1007.6
20260507054527 21 225 1.6 9.7 0.00 0.10 0.00 83 1007.7
20260507053539 21 0.0 6.4 0.00 0.10 0.00 83 1008.0
20260507052539 21 0.0 6.4 0.00 0.10 0.00 83 1008.2
20260507051540 21 225 1.6 9.7 0.00 0.10 0.00 83 1008.4
20260507050526 21 225 1.6 11.3 0.00 0.10 0.00 83 1008.3
20260507045559 21 248 1.6 8.0 0.00 0.10 0.00 84 1008.5
20260507044526 21 0.0 0.0 0.00 0.10 0.00 84 1008.5
20260507043559 21 0.0 4.8 0.00 0.10 0.00 84 1008.5
20260507042619 21 0.0 8.0 0.00 0.10 0.00 84 1008.6
20260507041539 20 0.0 0.0 0.00 0.10 0.00 85 1008.6
20260507040539 20 0.0 4.8 0.00 0.10 0.00 85 1008.6
20260507035526 20 0.0 3.2 0.00 0.10 0.10 86 1008.3
20260507034525 20 0.0 1.6 0.00 0.10 0.10 86 1008.4
20260507033538 20 248 1.6 4.8 0.00 0.10 0.10 86 1008.4
20260507032525 20 0.0 6.4 0.00 0.10 0.10 86 1008.2
20260507031538 20 270 1.6 4.8 0.00 0.10 0.10 86 1008.3
20260507030558 20 0.0 6.4 0.00 0.10 0.10 86 1008.4
20260507025538 20 0.0 6.4 0.00 0.10 0.10 87 1008.4
20260507024525 20 0.0 0.0 0.00 0.10 0.10 87 1008.3
20260507023525 20 0.0 3.2 0.00 0.10 0.10 86 1008.4
20260507022558 20 0.0 0.0 0.00 0.10 0.10 86 1008.6
20260507021525 20 0.0 3.2 0.00 0.10 0.10 86 1008.5
20260507020538 20 0.0 1.6 0.00 0.10 0.10 86 1008.4
20260507015538 20 0.0 0.0 0.00 0.10 0.10 86 1008.5
20260507014525 20 0.0 0.0 0.00 0.10 0.10 86 1008.7
20260507013538 20 0.0 0.0 0.00 0.10 0.10 87 1008.6
20260507012525 20 0.0 0.0 0.00 0.10 0.10 87 1008.4
20260507011538 20 0.0 0.0 0.00 0.10 0.10 87 1008.7
20260507010538 20 0.0 0.0 0.00 0.10 0.10 87 1008.7
20260507005538 20 0.0 3.2 0.00 0.10 0.10 87 1008.8
20260507004538 20 0.0 0.0 0.00 0.10 0.10 86 1008.7
20260507003525 20 0.0 0.0 0.00 0.10 0.10 85 1008.7
20260507002538 20 0.0 0.0 0.00 0.10 0.10 84 1008.6
20260507001525 20 0.0 0.0 0.00 0.10 0.10 82 1008.6
20260507000538 21 0.0 0.0 0.00 0.10 0.10 80 1008.5
20260506235538 21 0.0 0.0 0.00 0.10 0.10 79 1008.5
20260506234537 22 0.0 0.0 0.00 0.10 0.10 78 1008.5
20260506233525 22 0.0 0.0 0.00 0.10 0.10 77 1008.3
20260506232525 22 0.0 0.0 0.00 0.10 0.10 76 1008.4
20260506231537 22 0.0 0.0 0.00 0.10 0.10 75 1008.3
20260506230537 22 0.0 1.6 0.00 0.10 0.10 74 1008.2
20260506225538 22 0.0 3.2 0.00 0.10 0.10 74 1008.2
20260506224537 22 0.0 4.8 0.00 0.10 0.10 73 1008.3
20260506223537 22 0.0 4.8 0.00 0.10 0.10 73 1008.3
20260506222537 23 0.0 1.6 0.00 0.10 0.10 72 1008.3
20260506221525 23 248 1.6 6.4 0.00 0.10 0.10 71 1008.4
20260506220557 23 248 1.6 8.0 0.00 0.10 0.10 70 1008.5
20260506215537 23 248 1.6 8.0 0.00 0.10 0.10 70 1008.5
20260506214557 23 248 3.2 16.1 0.00 0.10 0.10 70 1008.4
20260506213537 23 248 3.2 9.7 0.00 0.10 0.10 70 1008.5
20260506212525 23 0.0 4.8 0.00 0.10 0.10 72 1008.5
20260506211537 22 225 1.6 6.4 0.00 0.10 0.10 73 1008.5
20260506210539 22 225 1.6 6.4 0.00 0.10 0.10 73 1008.3
20260506205539 22 225 1.6 8.0 0.00 0.10 0.10 73 1008.2
20260506204537 22 0.0 14.5 0.00 0.10 0.10 74 1008.0
20260506203540 22 0.0 6.4 0.00 0.10 0.10 75 1007.9
20260506202539 22 0.0 6.4 0.00 0.10 0.10 74 1007.8
20260506201539 22 0.0 4.8 0.00 0.10 0.10 75 1007.9
20260506200539 22 270 1.6 4.8 0.00 0.10 0.10 74 1008.4
20260506195539 22 0.0 4.8 0.00 0.10 0.10 77 1007.8
20260506194526 21 0.0 3.2 0.00 0.10 0.10 77 1008.0
20260506193526 21 0.0 4.8 0.00 0.10 0.10 77 1008.6
20260506192559 21 225 1.6 11.3 0.00 0.10 0.10 77 1008.5
20260506191539 21 0.0 4.8 0.00 0.10 0.10 78 1008.8
20260506190559 21 270 1.6 8.0 0.00 0.10 0.10 77 1009.1
20260506185539 21 0.0 4.8 0.00 0.10 0.10 76 1009.3
20260506184539 21 270 1.6 11.3 0.00 0.10 0.10 76 1009.3
20260506183526 21 248 3.2 19.3 0.00 0.10 0.10 76 1009.4
20260506182526 21 0.0 6.4 0.00 0.10 0.10 78 1009.6
20260506181539 21 0.0 3.2 0.00 0.10 0.10 79 1009.9
20260506180539 20 0.0 4.8 0.00 0.10 0.10 79 1009.9
20260506175559 20 248 1.6 4.8 0.00 0.10 0.10 79 1009.9
20260506174526 20 248 1.6 6.4 0.00 0.10 0.10 79 1009.8
20260506173538 20 0.0 3.2 0.00 0.10 0.10 79 1009.7
20260506172538 20 270 1.6 8.0 0.00 0.10 0.10 80 1009.9
20260506171539 20 248 1.6 8.0 0.00 0.10 0.10 83 1009.9
20260506170559 20 0.0 6.4 0.00 0.10 0.10 87 1010.0
20260506165558 18 0.0 6.4 0.00 0.10 0.10 90 1010.2
20260506164539 18 0.0 1.6 0.00 0.10 0.10 90 1010.4
20260506163546 18 0.0 1.6 0.05 0.10 0.10 90 1010.3
20260506162526 18 0.0 3.2 0.08 0.10 0.10 91 1010.7
20260506161538 18 270 1.6 9.7 0.10 0.10 0.10 91 1011.0
20260506160538 18 0.0 0.0 0.10 0.10 0.10 93 1011.1
20260506155539 18 0.0 1.6 0.10 0.10 0.10 92 1011.2
20260506154539 18 0.0 0.0 0.10 0.10 0.10 91 1011.6
20260506153538 18 0.0 0.0 0.05 0.05 0.05 88 1011.9
20260506152526 19 0.0 1.6 0.03 0.03 0.03 85 1011.8
20260506151526 20 0.0 8.0 0.00 0.00 0.00 82 1011.8
20260506150558 20 270 1.6 19.3 0.00 0.00 0.00 78 1011.9
20260506145538 21 248 1.6 19.3 0.00 0.00 0.00 72 1012.0
20260506144538 20 0.0 4.8 0.00 0.00 0.00 72 1011.8
20260506143526 20 0.0 6.4 0.00 0.00 0.00 73 1011.5
20260506142538 20 0.0 4.8 0.00 0.00 0.00 74 1011.4
20260506141546 20 0.0 25.7 0.00 0.00 0.00 73 1011.4
20260506140538 20 0.0 4.8 0.00 0.00 0.00 73 1011.5
20260506135618 20 0.0 4.8 0.00 0.00 0.00 74 1011.5
20260506134538 20 270 1.6 16.1 0.00 0.00 0.00 73 1011.4
20260506133538 20 270 3.2 24.1 0.00 0.00 0.00 69 1011.6
20260506132538 20 270 1.6 22.5 0.00 0.00 0.00 70 1011.3
20260506131525 20 270 3.2 24.1 0.00 0.00 0.00 70 1011.3